[[{"header":{"parameterUnit":"m.s-1","parameterCategory":1,"la1":30.2991,"la2":30.254,"lo1":-89.0895,"lo2":-89.0444,"dy":0.0017,"dx":0.0017,"nx":28,"ny":28,"refTime":"2023-11-02T03:00:00:Z","depth":0,"parameterNumber":2,"parameterNumberName":"U-component_of_WINDS"},"data":[0,0,0,0,0,0,0,0,0,0,0,0,0,0,0,0,0,0,0,0,0,0,0,0,0,0,0,0,0,0,0,0,0,0,0,0,0,0,0,0,0,0,0,0,0,0,0,0,0,0,0,0,0,0,0,0,0,0,-4.3974,-4.3975,0,-4.4067,-4.4068,-4.4069,-4.3896,-4.389,-4.3884,-4.3879,-4.3978,-4.3986,-4.3994,0,0,0,0,0,0,0,0,0,0,0,0,0,-4.3649,-4.3656,-4.3974,-4.3975,-4.3976,-4.4067,-4.4068,-4.4069,-4.3897,-4.389,-4.3883,-4.3876,-4.3975,-4.3985,-4.3994,0,0,0,0,0,0,0,0,0,0,0,0,0,-4.3771,-4.3658,-4.3973,-4.3901,-4.3895,-4.4066,-4.4068,-4.4069,-4.3898,-4.389,-4.3881,-4.3873,-4.3972,-4.3984,-4.3996,-4.4243,0,0,-4.4032,-4.4038,0,0,0,0,0,0,0,0,-4.3765,-4.3783,-4.391,-4.3906,-4.39,-4.3961,-4.3989,-4.4128,-4.3901,-4.3897,-4.3879,-4.3869,-4.3979,-4.399,-4.4027,-4.4247,-4.4252,-4.4033,-4.4041,-4.4046,-4.4049,0,0,0,0,0,0,0,-4.3756,-4.3778,-4.401,-4.3912,-4.3906,-4.3864,-4.3872,-4.4015,-4.3986,-4.3897,-4.3885,-4.3898,-4.3975,-4.4016,-4.4028,-4.4253,-4.4033,-4.4044,-4.4051,-4.4056,-4.4681,-4.469,0,0,0,0,0,0,-4.3757,-4.3772,-4.4007,-4.4013,-4.381,-4.3877,-4.3886,-4.395,-4.3984,-4.3981,-4.3905,-4.3889,-4.3999,-4.4014,-4.4031,-4.4323,-4.4046,-4.4057,-4.4064,-4.4672,-4.4683,-4.4693,0,0,0,0,0,0,-4.375,-4.3779,-4.4004,-4.389,-4.3915,-4.3892,-4.3966,-4.3957,-4.3997,-4.399,-4.3984,-4.3952,-4.3993,-4.4014,-4.4191,-4.4324,-4.4062,-4.4073,-4.466,-4.4675,-4.4688,-4.4909,0,0,0,0,0,0,-4.3742,-4.3778,-4.3871,-4.3893,-4.3922,-4.4163,-4.3974,-4.3965,-4.4018,-4.3998,-4.4032,-4.403,-4.3988,-4.4174,-4.4203,-4.4335,-4.4083,-4.4648,-4.4667,-4.4684,-4.4889,-4.4928,-4.4962,0,0,0,0,0,-4.3731,-4.393,-4.3877,-4.3906,-4.4038,-4.4171,-4.4187,-4.4134,-4.4029,-4.4123,-4.4118,-4.4029,-4.4304,-4.4194,-4.4225,-4.4363,-4.464,-4.4662,-4.4682,-4.4873,-4.4921,-4.4961,0,0,0,0,0,0,-4.3926,-4.3932,-4.3873,-4.4085,-4.4129,-4.4141,-4.4258,-4.4186,-4.4261,-4.424,-4.4172,-4.4181,-4.4372,-4.4385,-4.4262,-4.4604,-4.4454,-4.4483,-4.4589,-4.4634,-4.467,-4.4664,-4.4093,0,0,0,0,0,-4.3994,-4.41,-4.41,-4.4287,-4.4312,-4.4282,-4.4338,-4.4293,-4.4335,-4.4353,-4.4361,-4.4408,-4.4504,-4.4569,-4.4658,-4.4889,-4.4895,-4.5,-4.5036,-4.5066,-4.5092,-4.5216,-4.5263,-4.4763,-4.4762,-4.4762,0,0,-4.4135,-4.4151,-4.4223,-4.4327,-4.4355,-4.4468,-4.4298,-4.4425,-4.4508,-4.4373,-4.4541,-4.4549,-4.4595,-4.4801,-4.4892,-4.4817,-4.5231,-4.5093,-4.5117,-4.5127,-4.5243,-4.529,-4.5332,-4.4777,-4.4774,-4.4772,0,0,-4.445,-4.4473,-4.4632,-4.4663,-4.4708,-4.4686,-4.4725,-4.4748,-4.4748,-4.4914,-4.4815,-4.4914,-4.5081,-4.5119,-4.516,-4.5489,-4.5409,-4.5519,-4.571,-4.5831,-4.5871,-4.5905,-4.6024,-4.6067,-4.5545,-4.5545,-4.5546,0,-4.4621,-4.4786,-4.4723,-4.4856,-4.4905,-4.4786,-4.4947,-4.4981,-4.5053,-4.509,-4.5005,-4.5213,-4.5236,-4.5449,-4.5529,-4.5566,-4.5608,-4.5516,-4.587,-4.5904,-4.5936,-4.6048,-4.6092,-4.5558,-4.5557,-4.5556,-4.5554,0,-4.4994,-4.511,-4.5233,-4.5304,-4.5367,-4.5514,-4.5473,-4.5544,-4.5494,-4.5482,-4.5654,-4.5676,-4.5768,-4.5814,-4.5767,-4.6022,-4.5974,-4.5881,-4.573,-4.5997,-4.6102,-4.6144,-4.5577,-4.5573,-4.5569,-4.5565,0,0,-4.5437,-4.547,-4.5517,-4.5548,-4.5587,-4.5676,-4.5818,-4.5905,-4.5968,-4.6022,-4.6139,-4.6284,-4.6197,-4.6244,-4.6199,-4.6306,-4.6566,-4.6199,-4.6199,-4.6268,-4.685,-4.6921,-4.6972,-4.6513,-4.6521,-4.6527,-4.6846,0,-4.5751,-4.5993,-4.594,-4.6179,-4.6286,-4.6174,-4.6297,-4.6335,-4.6327,-4.6417,-4.6408,-4.6512,-4.639,-4.6417,-4.6518,-4.6514,-4.6683,-4.6489,-4.6624,-4.6629,-4.6617,-4.7026,-4.7102,-4.7402,-4.6886,-4.6893,-4.6898,0,-4.615,-4.6217,-4.6467,-4.6489,-4.6532,-4.6644,-4.672,-4.6807,-4.6848,-4.6835,-4.6887,-4.6822,-4.6962,-4.6808,-4.7002,-4.6873,-4.6924,-4.693,-4.694,-4.6952,-4.6781,-4.7051,-4.7496,-4.7542,-4.6962,-4.6957,-4.6952,0,-4.645,-4.6603,-4.6772,-4.6801,-4.6831,-4.6913,-4.6929,-4.6961,-4.7018,-4.7085,-4.7121,-4.7204,-4.725,-4.7316,-4.7275,-4.7166,-4.7477,-4.7319,-4.7471,-4.7473,-4.7543,-4.754,-4.8005,-4.7574,-4.7573,-4.7573,-4.7572,0,-4.6807,-4.6965,-4.6907,-4.7011,-4.7184,-4.7122,-4.7295,-4.7298,-4.7328,-4.7432,-4.734,-4.7439,-4.7378,-4.7473,-4.7442,-4.7608,-4.7629,-4.7623,-4.7614,-4.7633,-4.7634,-4.7667,-4.7646,-4.7584,-4.7582,-4.7579,-4.7577,0,-4.7172,-4.714,-4.7317,-4.733,-4.7337,-4.7464,-4.7476,-4.7574,-4.7557,-4.769,-4.7718,-4.7694,-4.7801,-4.7766,-4.7881,-4.786,-4.8072,-4.8034,-4.8058,-4.8049,-4.8204,-4.819,-4.8708,-4.8773,-4.8299,-4.8304,-4.8307,0,-4.7403,-4.7521,-4.7547,-4.7609,-4.7632,-4.7734,-4.779,-4.7733,-4.7795,-4.7851,-4.7943,-4.8041,-4.8117,-4.8293,-4.8287,-4.8375,-4.8339,-4.8515,-4.8352,-4.8368,-4.8344,-4.8338,-4.835,-4.8548,-4.8553,-4.8558,-4.8561,0,-4.7817,-4.7795,-4.7879,-4.7959,-4.8028,-4.8088,-4.814,-4.8197,-4.8142,-4.8218,-4.8325,-4.8384,-4.8501,-4.86,-4.8679,-4.8697,-4.8622,-4.8612,-4.8652,-4.8674,-4.8684,-4.8682,-4.8148,-4.8601,-4.8597,-4.8594,-4.8592,-4.8591,-4.8123,-4.8223,-4.8257,-4.8354,-4.8386,-4.8437,-4.8529,-4.8524,-4.8612,-4.8702,-4.8663,-4.8788,-4.8825,-4.8924,-4.8952,-4.9049,-4.8982,-4.904,-4.9055,-4.907,-4.9091,-4.8667,-4.9063,-4.9062,-4.9061,-4.906,-4.9059,0,-4.8533,-4.8549,-4.8639,-4.8713,-4.879,-4.871,-4.8763,-4.8833,-4.8943,-4.8984,-4.906,-4.9184,-4.928,-4.9281,-4.937,-4.9448,-4.9416,-4.9474,-4.9468,-4.9474,-4.9145,-4.9102,-4.9498,-4.9498,-4.9498,-4.9498,-4.9498,-4.9498,-4.8756,-4.8921,-4.8903,-4.9083,-4.9097,-4.9218,-4.9255,-4.9302,-4.9334,-4.9476,-4.9555,-4.9554,-4.9579,-4.967,-4.9754,-4.9752,-4.979,-4.9862,-4.9847,-4.9541,-4.9497,-4.9455,-4.9415,-4.987,-4.9871,-5.0167,-5.017,-5.0172]},{"header":{"parameterUnit":"m.s-1","parameterCategory":1,"la1":30.2991,"la2":30.254,"lo1":-89.0895,"lo2":-89.0444,"dy":0.0017,"dx":0.0017,"nx":28,"ny":28,"refTime":"2023-11-02T03:00:00:Z","depth":0,"parameterNumber":3,"parameterNumberName":"V-component_of_WINDS"},"data":[0,0,0,0,0,0,0,0,0,0,0,0,0,0,0,0,0,0,0,0,0,0,0,0,0,0,0,0,0,0,0,0,0,0,0,0,0,0,0,0,0,0,0,0,0,0,0,0,0,0,0,0,0,0,0,0,0,0,-3.5331,-3.5331,0,-3.5322,-3.5322,-3.5322,-3.5302,-3.5301,-3.5301,-3.53,-3.5288,-3.5288,-3.5288,0,0,0,0,0,0,0,0,0,0,0,0,0,-3.5326,-3.5326,-3.5331,-3.5331,-3.5331,-3.5322,-3.5322,-3.5322,-3.5302,-3.5301,-3.5301,-3.53,-3.5288,-3.5288,-3.5288,0,0,0,0,0,0,0,0,0,0,0,0,0,-3.5324,-3.5326,-3.5331,-3.532,-3.5319,-3.5322,-3.5322,-3.5322,-3.5302,-3.5301,-3.5301,-3.53,-3.5288,-3.5288,-3.5288,-3.5301,0,0,-3.5288,-3.5288,0,0,0,0,0,0,0,0,-3.5324,-3.5324,-3.5322,-3.5321,-3.532,-3.5312,-3.5316,-3.5315,-3.5302,-3.5308,-3.53,-3.53,-3.5296,-3.5296,-3.5295,-3.53,-3.53,-3.5288,-3.5288,-3.5288,-3.5288,0,0,0,0,0,0,0,-3.5324,-3.5324,-3.5328,-3.5322,-3.532,-3.5314,-3.5313,-3.5315,-3.5306,-3.5308,-3.5306,-3.5305,-3.5296,-3.5295,-3.5295,-3.5299,-3.5288,-3.5288,-3.5288,-3.5288,-3.5309,-3.531,0,0,0,0,0,0,-3.5326,-3.5324,-3.5328,-3.5327,-3.532,-3.5314,-3.5313,-3.5315,-3.5306,-3.5304,-3.5306,-3.5305,-3.5295,-3.5295,-3.5294,-3.5306,-3.5288,-3.5288,-3.5288,-3.5309,-3.531,-3.531,0,0,0,0,0,0,-3.5326,-3.5327,-3.5328,-3.5325,-3.5325,-3.5315,-3.5318,-3.5315,-3.5315,-3.5304,-3.5302,-3.5308,-3.5295,-3.5294,-3.5298,-3.5305,-3.5288,-3.5288,-3.5308,-3.5309,-3.531,-3.5331,0,0,0,0,0,0,-3.5326,-3.5327,-3.5333,-3.5326,-3.5325,-3.5335,-3.5318,-3.5316,-3.5316,-3.5314,-3.5305,-3.5303,-3.5294,-3.5298,-3.5298,-3.5305,-3.5288,-3.5308,-3.5309,-3.531,-3.5329,-3.5332,-3.5334,0,0,0,0,0,-3.5326,-3.534,-3.5334,-3.5334,-3.5333,-3.5335,-3.5335,-3.5325,-3.5316,-3.5321,-3.5314,-3.5304,-3.5304,-3.5299,-3.5299,-3.5305,-3.5307,-3.5308,-3.531,-3.5328,-3.5331,-3.5334,0,0,0,0,0,0,-3.5348,-3.5339,-3.5332,-3.5344,-3.534,-3.5332,-3.5338,-3.5329,-3.5327,-3.5325,-3.5312,-3.531,-3.5316,-3.5311,-3.5305,-3.5315,-3.5304,-3.5305,-3.5318,-3.5321,-3.5324,-3.5324,-3.5289,0,0,0,0,0,-3.5355,-3.5358,-3.5349,-3.536,-3.5359,-3.5349,-3.5349,-3.5341,-3.5337,-3.5335,-3.5328,-3.5323,-3.5322,-3.5321,-3.532,-3.5328,-3.5324,-3.5332,-3.5335,-3.5337,-3.5338,-3.5339,-3.5341,-3.5314,-3.5314,-3.5314,0,0,-3.5368,-3.5363,-3.5366,-3.5365,-3.5361,-3.5363,-3.5348,-3.5351,-3.5352,-3.5335,-3.5339,-3.5333,-3.5326,-3.5332,-3.5334,-3.5328,-3.5344,-3.5338,-3.534,-3.534,-3.534,-3.5343,-3.5345,-3.5315,-3.5315,-3.5315,0,0,-3.5392,-3.539,-3.5397,-3.5394,-3.5388,-3.5381,-3.5382,-3.5374,-3.537,-3.5373,-3.536,-3.5359,-3.5358,-3.5353,-3.535,-3.5368,-3.5358,-3.5368,-3.5381,-3.5382,-3.5384,-3.5386,-3.539,-3.5392,-3.5369,-3.5369,-3.5369,0,-3.5409,-3.5413,-3.5402,-3.5406,-3.5404,-3.5389,-3.5395,-3.5391,-3.5385,-3.5384,-3.5377,-3.5373,-3.5368,-3.537,-3.5374,-3.5374,-3.5373,-3.5369,-3.5385,-3.5386,-3.5388,-3.5392,-3.5394,-3.537,-3.537,-3.537,-3.537,0,-3.5431,-3.5434,-3.544,-3.5435,-3.5434,-3.5439,-3.5427,-3.5427,-3.5418,-3.5411,-3.5412,-3.5404,-3.5399,-3.5399,-3.5392,-3.54,-3.5396,-3.5388,-3.5376,-3.5392,-3.5395,-3.5397,-3.5372,-3.5371,-3.5371,-3.5371,0,0,-3.5471,-3.5457,-3.546,-3.5456,-3.5447,-3.5448,-3.545,-3.5446,-3.5445,-3.544,-3.544,-3.5438,-3.5429,-3.5426,-3.5417,-3.5418,-3.5429,-3.5408,-3.5408,-3.5411,-3.5434,-3.544,-3.5442,-3.5422,-3.5422,-3.5423,-3.5434,0,-3.5492,-3.5497,-3.5486,-3.5492,-3.5492,-3.5477,-3.5478,-3.5472,-3.5464,-3.5462,-3.5453,-3.545,-3.544,-3.5437,-3.5438,-3.5428,-3.5433,-3.5427,-3.542,-3.542,-3.5421,-3.5444,-3.5451,-3.5462,-3.5436,-3.5436,-3.5436,0,-3.5517,-3.5513,-3.552,-3.5508,-3.5508,-3.551,-3.5503,-3.5502,-3.5493,-3.5487,-3.5482,-3.5471,-3.5469,-3.5459,-3.5456,-3.5451,-3.5447,-3.5442,-3.5442,-3.544,-3.5429,-3.5441,-3.5466,-3.5467,-3.5438,-3.5438,-3.5438,0,-3.5542,-3.5539,-3.5541,-3.5539,-3.5526,-3.5527,-3.5521,-3.5512,-3.5508,-3.5502,-3.5499,-3.5493,-3.5489,-3.5483,-3.5469,-3.5463,-3.5466,-3.5455,-3.5459,-3.546,-3.5461,-3.5461,-3.5484,-3.546,-3.546,-3.546,-3.546,0,-3.5566,-3.557,-3.5552,-3.5554,-3.5556,-3.5543,-3.5545,-3.5538,-3.5529,-3.5527,-3.5513,-3.5511,-3.5494,-3.549,-3.5479,-3.5476,-3.5475,-3.5468,-3.5465,-3.5469,-3.547,-3.5466,-3.5464,-3.5461,-3.5461,-3.5461,-3.546,0,-3.5594,-3.5583,-3.5584,-3.5571,-3.5567,-3.557,-3.5558,-3.5557,-3.5548,-3.5545,-3.5544,-3.5528,-3.5522,-3.5508,-3.5498,-3.549,-3.549,-3.5485,-3.5493,-3.5491,-3.5495,-3.5494,-3.5516,-3.5517,-3.5494,-3.5494,-3.5495,0,-3.5609,-3.5612,-3.5598,-3.5596,-3.5591,-3.5588,-3.5585,-3.557,-3.5567,-3.5555,-3.5555,-3.5548,-3.5541,-3.5531,-3.5518,-3.5509,-3.5503,-3.5511,-3.5502,-3.5505,-3.5501,-3.5501,-3.55,-3.5513,-3.5514,-3.5514,-3.5514,0,-3.5636,-3.563,-3.5626,-3.5619,-3.5615,-3.5609,-3.5602,-3.5601,-3.5584,-3.558,-3.5574,-3.5569,-3.5558,-3.5549,-3.5538,-3.553,-3.5518,-3.5517,-3.5517,-3.5521,-3.5525,-3.5521,-3.5497,-3.5517,-3.5516,-3.5516,-3.5516,-3.5516,-3.5657,-3.5657,-3.5647,-3.5642,-3.5636,-3.5629,-3.5627,-3.5617,-3.5611,-3.5602,-3.5593,-3.5587,-3.5574,-3.5558,-3.5551,-3.5544,-3.5539,-3.5539,-3.5539,-3.5539,-3.554,-3.5526,-3.5542,-3.5542,-3.5542,-3.5542,-3.5542,0,-3.5682,-3.5674,-3.567,-3.566,-3.5655,-3.5645,-3.5636,-3.5632,-3.5627,-3.5618,-3.5611,-3.5602,-3.5593,-3.5579,-3.5568,-3.5565,-3.556,-3.5563,-3.5562,-3.556,-3.5547,-3.5547,-3.5568,-3.5568,-3.5568,-3.5568,-3.5568,-3.5568,-3.5694,-3.5693,-3.5685,-3.568,-3.5672,-3.5666,-3.5661,-3.5653,-3.5645,-3.5636,-3.5629,-3.562,-3.5607,-3.5595,-3.5586,-3.5582,-3.5578,-3.5583,-3.5577,-3.5564,-3.5562,-3.5559,-3.5559,-3.5582,-3.5582,-3.5591,-3.5591,-3.5591]}]]